Weather History for Chiang Mai, Thailand

Change the Weather History Date:

Tuesday, November 13, 2012

  Actual Average Record
Temperature  
Mean Temperature 81 °F -  
Max Temperature 89 °F 83 °F 92 °F (2013)
Min Temperature 73 °F 63 °F 62 °F (2008)
Cooling Degree Days 16    
Growing Degree Days 31 (Base 50)    
Moisture  
Dew Point 70 °F    
Average Humidity 74    
Maximum Humidity 88    
Minimum Humidity 49    
Precipitation  
Precipitation 0.02 in 0.05 in - ()
Sea Level Pressure  
Sea Level Pressure 29.97 in    
Wind  
Wind Speed 2 mph ()    
Max Wind Speed 8 mph    
Max Gust Speed -    
Visibility 6.0 miles    
Events Rain    
Averages and records for this station are not official NWS values.
T = Trace of Precipitation, MM = Missing Value Source: Averaged Metar Reports

Daily Weather History Graph

Daily Weather History Graph

Search for Another Location

Airport:

Trip Planner

Search our weather history database for the weather conditions in past years. The results will help you decide how hot, cold, wet, or windy it might be!

Date:

Astronomy

Nov. 13, 2012 Rise Set
Actual Time 6:30 AM ICT 5:46 PM ICT
Civil Twilight 6:07 AM ICT 6:09 PM ICT
Nautical Twilight 5:40 AM ICT 6:35 PM ICT
Astronomical Twilight 5:14 AM ICT 7:02 PM ICT
Moon 5:33 AM ICT (11/13) 5:13 PM ICT (11/13)
Length of Visible Light 12h 02m
Length of Day
11h 16m
Waning Crescent, 1% of the Moon is Illuminated
Nov 13
Waning Crescent
Nov 14
New
Nov 20
First Quarter
Nov 28
Full
Dec 6
Last Quarter

Hourly Weather History & Observations

Time (ICT) Temp. Heat Index Dew Point Humidity Pressure Visibility Wind Dir Wind Speed Gust Speed Precip Events Conditions
12:00 AM 75.2 °F - 69.8 °F 83% 30.01 in 6.2 mi Calm Calm - N/A   Scattered Clouds
12:30 AM 75.2 °F - 69.8 °F 83% 30.01 in 6.2 mi WSW 2.3 mph - N/A   Partly Cloudy
1:00 AM 76 °F - 72 °F 83% 29.97 in 6 mi Calm Calm - -   Clear
1:00 AM 75.2 °F - 69.8 °F 83% 30.01 in 6.2 mi Calm Calm - N/A   Partly Cloudy
1:30 AM 75.2 °F - 69.8 °F 83% 30.01 in 6.2 mi Calm Calm - N/A   Partly Cloudy
2:00 AM 73.4 °F - 69.8 °F 88% 30.01 in 6.2 mi Calm Calm - N/A   Partly Cloudy
2:30 AM 73.4 °F - 69.8 °F 88% 30.01 in 6.2 mi Calm Calm - N/A   Partly Cloudy
3:30 AM 73.4 °F - 69.8 °F 88% 29.98 in 6.2 mi Calm Calm - N/A   Partly Cloudy
4:30 AM 73.4 °F - 69.8 °F 88% 29.98 in 6.2 mi Calm Calm - N/A   Partly Cloudy
5:00 AM 73.4 °F - 69.8 °F 88% 29.98 in 6.2 mi Calm Calm - N/A   Partly Cloudy
5:30 AM 73.4 °F - 69.8 °F 88% 30.01 in 6.2 mi North 3.5 mph - N/A   Partly Cloudy
6:00 AM 73.4 °F - 69.8 °F 88% 30.01 in 6.2 mi NNE 3.5 mph - N/A   Partly Cloudy
6:30 AM 75.2 °F - 69.8 °F 83% 30.01 in 5.0 mi NE 2.3 mph - N/A   Scattered Clouds
7:00 AM 74 °F - 71 °F 86% 29.97 in 6 mi Calm Calm - -   Mostly Cloudy
7:00 AM 75.2 °F - 69.8 °F 83% 30.01 in 5.0 mi ENE 2.3 mph - N/A   Mostly Cloudy
7:30 AM 75.2 °F - 69.8 °F 83% 30.04 in 5.0 mi Calm Calm - N/A   Mostly Cloudy
8:00 AM 75.2 °F - 69.8 °F 83% 30.04 in 5.0 mi WNW 2.3 mph - N/A   Mostly Cloudy
8:30 AM 75.2 °F - 69.8 °F 83% 30.06 in 5.0 mi WSW 2.3 mph - N/A   Mostly Cloudy
9:00 AM 75.2 °F - 69.8 °F 83% 30.06 in 5.0 mi WNW 1.2 mph - N/A Rain Light Rain
9:30 AM 77.0 °F - 71.6 °F 83% 30.06 in 5.0 mi WNW 2.3 mph - N/A   Mostly Cloudy
10:00 AM 78.8 °F - 69.8 °F 74% 30.06 in 6.2 mi NNW 1.2 mph - N/A   Scattered Clouds
10:30 AM 80.6 °F 83.9 °F 69.8 °F 70% 30.04 in 6.2 mi West 2.3 mph - N/A   Scattered Clouds
11:00 AM 82.4 °F 86.3 °F 69.8 °F 66% 30.04 in 6.2 mi NW 2.3 mph - N/A   Scattered Clouds
11:30 AM 82.4 °F 86.3 °F 69.8 °F 66% 30.01 in 6.2 mi WNW 2.3 mph - N/A   Scattered Clouds
12:00 PM 84.2 °F 87.3 °F 68.0 °F 58% 30.01 in 6.2 mi North 2.3 mph - N/A   Scattered Clouds
12:30 PM 84.2 °F 87.3 °F 68.0 °F 58% 29.98 in 6.2 mi NW 3.5 mph - N/A   Scattered Clouds
1:00 PM 87 °F - 72 °F 53% 29.88 in 6 mi Calm Calm - -   Partly Cloudy
1:00 PM 87.8 °F 91.4 °F 68.0 °F 52% 29.95 in 6.2 mi SSE 4.6 mph - N/A   Scattered Clouds
1:30 PM 87.8 °F 90.4 °F 66.2 °F 49% 29.92 in 6.2 mi SW 5.8 mph - N/A   Scattered Clouds
2:00 PM 86.0 °F 89.4 °F 68.0 °F 55% 29.92 in 6.2 mi SSE 4.6 mph - N/A   Scattered Clouds
2:30 PM 86.0 °F 89.4 °F 68.0 °F 55% 29.89 in 6.2 mi SSE 6.9 mph - N/A   Partly Cloudy
3:00 PM 87.8 °F 91.4 °F 68.0 °F 52% 29.89 in 6.2 mi South 5.8 mph - N/A   Partly Cloudy
3:30 PM 87.8 °F 91.4 °F 68.0 °F 52% 29.86 in 6.2 mi SE 8.1 mph - N/A   Partly Cloudy
4:00 PM 87.8 °F 91.4 °F 68.0 °F 52% 29.86 in 6.2 mi SE 8.1 mph - N/A   Scattered Clouds
4:30 PM 86.0 °F 88.2 °F 66.2 °F 51% 29.86 in 6.2 mi SSE 5.8 mph - N/A   Scattered Clouds
5:00 PM 86.0 °F 89.4 °F 68.0 °F 55% 29.89 in 6.2 mi SSE 4.6 mph - N/A   Scattered Clouds
5:30 PM 86.0 °F 89.4 °F 68.0 °F 55% 29.89 in 6.2 mi South 3.5 mph - N/A   Scattered Clouds
6:00 PM 80.6 °F 84.6 °F 71.6 °F 74% 29.89 in 6.2 mi West 6.9 mph - N/A   Scattered Clouds
6:30 PM 78.8 °F - 71.6 °F 78% 29.92 in 6.2 mi West 3.5 mph - N/A Rain Light Rain
7:00 PM 81 °F - 74 °F 75% 29.85 in 6 mi Calm Calm - - Rain Light Rain
7:00 PM 78.8 °F - 71.6 °F 78% 29.92 in 6.2 mi West 2.3 mph - N/A   Scattered Clouds
7:30 PM 78.8 °F - 71.6 °F 78% 29.95 in 6.2 mi Calm Calm - N/A   Scattered Clouds
8:00 PM 78.8 °F - 71.6 °F 78% 29.95 in 6.2 mi NE 3.5 mph - N/A   Scattered Clouds
8:30 PM 77.0 °F - 69.8 °F 78% 29.98 in 6.2 mi NNE 3.5 mph - N/A   Scattered Clouds
9:00 PM 77.0 °F - 68.0 °F 74% 29.98 in 6.2 mi NNE 8.1 mph - N/A   Mostly Cloudy
9:30 PM 77.0 °F - 68.0 °F 74% 30.01 in 5.6 mi NNE 5.8 mph - N/A Rain Light Rain
10:00 PM 75.2 °F - 68.0 °F 78% 30.01 in 5.6 mi NE 4.6 mph - N/A Rain Light Rain
10:30 PM 75.2 °F - 68.0 °F 78% 30.01 in 5.6 mi North 1.2 mph - N/A Rain Light Rain
11:00 PM 75.2 °F - 69.8 °F 83% 29.98 in 6.2 mi NW 4.6 mph - N/A   Mostly Cloudy
11:30 PM 75.2 °F - 69.8 °F 83% 29.98 in 6.2 mi North 5.8 mph - N/A   Mostly Cloudy